�������l�o���
Date,Time,MP-1(��Sv/h),MP-2(��Sv/h),MP-3(��Sv/h),MP-4(��Sv/h),MP-5(��Sv/h),MP-6(��Sv/h),MP-7(��Sv/h),MP-8(��Sv/h),����,����(m/s),���J
2021/07/29,00:00,0.588,0.864,0.553,1.060,0.736,0.362,0.623,0.584,�쓌,1.2,��
2021/07/29,00:10,0.590,0.864,0.553,1.062,0.737,0.361,0.624,0.584,-,CALM,��
2021/07/29,00:20,0.589,0.865,0.555,1.059,0.738,0.362,0.621,0.585,-,CALM,��
2021/07/29,00:30,0.589,0.864,0.554,1.062,0.739,0.362,0.623,0.584,��쓌,0.6,��
2021/07/29,00:40,0.590,0.865,0.553,1.064,0.736,0.360,0.623,0.585,��쐼,1.2,��
2021/07/29,00:50,0.588,0.865,0.553,1.063,0.737,0.362,0.623,0.583,�쐼,1.1,��
2021/07/29,01:00,0.588,0.866,0.554,1.062,0.737,0.363,0.624,0.585,���k��,1.1,��
2021/07/29,01:10,0.589,0.865,0.555,1.064,0.737,0.362,0.623,0.583,���쐼,0.6,��
2021/07/29,01:20,0.588,0.866,0.554,1.062,0.738,0.362,0.625,0.586,�k��,0.6,��
2021/07/29,01:30,0.589,0.866,0.554,1.062,0.739,0.362,0.624,0.586,-,CALM,��
2021/07/29,01:40,0.589,0.864,0.554,1.064,0.739,0.362,0.624,0.585,-,CALM,��
2021/07/29,01:50,0.589,0.864,0.556,1.062,0.739,0.361,0.622,0.585,-,CALM,��
2021/07/29,02:00,0.588,0.867,0.553,1.062,0.741,0.363,0.624,0.585,���쓌,1.1,��
2021/07/29,02:10,0.589,0.867,0.556,1.064,0.741,0.362,0.623,0.584,-,CALM,��
2021/07/29,02:20,0.589,0.866,0.555,1.064,0.740,0.363,0.623,0.585,�쓌,0.9,��
2021/07/29,02:30,0.589,0.866,0.554,1.067,0.741,0.362,0.624,0.584,��,0.6,��
2021/07/29,02:40,0.589,0.865,0.554,1.064,0.740,0.362,0.624,0.585,-,CALM,��
2021/07/29,02:50,0.588,0.865,0.554,1.065,0.742,0.363,0.624,0.585,-,CALM,��
2021/07/29,03:00,0.590,0.866,0.554,1.064,0.741,0.361,0.622,0.585,-,CALM,��
2021/07/29,03:10,0.591,0.867,0.555,1.064,0.740,0.362,0.624,0.586,�쐼,0.9,��
2021/07/29,03:20,0.590,0.865,0.554,1.063,0.742,0.362,0.624,0.584,�쐼,1.1,��
2021/07/29,03:30,0.589,0.866,0.553,1.066,0.741,0.362,0.624,0.584,���쐼,0.6,��
2021/07/29,03:40,0.590,0.867,0.555,1.065,0.743,0.362,0.623,0.585,���k��,1.2,��
2021/07/29,03:50,0.590,0.868,0.555,1.062,0.740,0.362,0.625,0.586,���k��,1.5,��
2021/07/29,04:00,0.588,0.865,0.556,1.065,0.742,0.363,0.624,0.586,�k�k��,0.9,��
2021/07/29,04:10,0.591,0.869,0.555,1.063,0.741,0.361,0.626,0.586,�k��,0.8,��
2021/07/29,04:20,0.589,0.867,0.553,1.063,0.741,0.361,0.623,0.585,�k,0.6,��
2021/07/29,04:30,0.589,0.866,0.554,1.064,0.742,0.362,0.624,0.585,-,CALM,��
2021/07/29,04:40,0.590,0.866,0.556,1.064,0.742,0.362,0.624,0.586,-,CALM,��
2021/07/29,04:50,0.589,0.866,0.555,1.064,0.741,0.362,0.623,0.585,��쓌,0.6,��
2021/07/29,05:00,0.588,0.866,0.554,1.063,0.743,0.362,0.624,0.585,-,CALM,��
2021/07/29,05:10,0.589,0.868,0.553,1.064,0.743,0.362,0.624,0.584,-,CALM,��
2021/07/29,05:20,0.590,0.869,0.555,1.065,0.743,0.362,0.624,0.585,-,CALM,��
2021/07/29,05:30,0.590,0.870,0.557,1.065,0.744,0.362,0.625,0.586,�k�k��,0.6,��
2021/07/29,05:40,0.589,0.868,0.555,1.064,0.743,0.361,0.625,0.585,-,CALM,��
2021/07/29,05:50,0.588,0.865,0.555,1.067,0.744,0.362,0.624,0.585,-,CALM,��
2021/07/29,06:00,0.590,0.867,0.557,1.063,0.741,0.362,0.626,0.586,�k��,0.6,��
2021/07/29,06:10,0.589,0.867,0.554,1.066,0.744,0.362,0.625,0.588,���k��,0.8,��
2021/07/29,06:20,0.590,0.868,0.556,1.066,0.743,0.362,0.624,0.586,�k,1.5,��
2021/07/29,06:30,0.589,0.869,0.555,1.065,0.741,0.363,0.625,0.586,�k�k��,1.5,��
2021/07/29,06:40,0.590,0.869,0.555,1.066,0.742,0.362,0.625,0.587,�k�k��,0.8,��
2021/07/29,06:50,0.592,0.866,0.556,1.066,0.743,0.364,0.624,0.585,-,CALM,��
2021/07/29,07:00,0.590,0.869,0.556,1.068,0.743,0.363,0.626,0.587,�k�k��,0.6,��
2021/07/29,07:10,0.592,0.871,0.557,1.064,0.744,0.362,0.625,0.587,�k�k��,1.2,��
2021/07/29,07:20,0.591,0.867,0.556,1.070,0.744,0.364,0.624,0.585,-,CALM,��
2021/07/29,07:30,0.591,0.869,0.557,1.064,0.743,0.364,0.626,0.587,�k�k��,1.1,��
2021/07/29,07:40,0.590,0.871,0.558,1.065,0.745,0.363,0.624,0.585,�k��,1.5,��
2021/07/29,07:50,0.592,0.871,0.559,1.066,0.746,0.361,0.625,0.586,�k�k��,1.4,��
2021/07/29,08:00,0.592,0.870,0.557,1.067,0.745,0.363,0.626,0.586,�k�k��,1.4,��
2021/07/29,08:10,0.591,0.870,0.559,1.065,0.745,0.363,0.623,0.584,�k�k��,1.5,��
2021/07/29,08:20,0.591,0.871,0.556,1.066,0.744,0.363,0.624,0.583,�k��,1.5,��
2021/07/29,08:30,0.592,0.871,0.558,1.067,0.743,0.361,0.624,0.583,�k�k��,0.8,��
2021/07/29,08:40,0.590,0.871,0.556,1.067,0.744,0.362,0.626,0.585,-,CALM,��
2021/07/29,08:50,0.591,0.870,0.555,1.070,0.745,0.362,0.625,0.584,��쓌,1.5,��
2021/07/29,09:00,0.593,0.871,0.557,1.068,0.747,0.360,0.625,0.585,��쓌,1.2,��
2021/07/29,09:10,0.594,0.871,0.559,1.068,0.747,0.361,0.624,0.586,��쓌,2.2,��
2021/07/29,09:20,0.593,0.871,0.557,1.066,0.747,0.362,0.626,0.585,��쓌,1.2,��
2021/07/29,09:30,0.594,0.873,0.557,1.070,0.747,0.363,0.626,0.586,�쓌,0.8,��
2021/07/29,09:40,0.594,0.872,0.556,1.068,0.746,0.362,0.626,0.586,��,0.9,��
2021/07/29,09:50,0.593,0.873,0.557,1.069,0.749,0.362,0.625,0.586,��,2.5,��
2021/07/29,10:00,0.594,0.873,0.557,1.067,0.748,0.361,0.625,0.585,���쓌,2.6,��
2021/07/29,10:10,0.595,0.874,0.557,1.067,0.751,0.362,0.626,0.587,���쓌,2.2,��
2021/07/29,10:20,0.592,0.873,0.558,1.067,0.747,0.363,0.626,0.585,��쓌,2.3,��
2021/07/29,10:30,0.593,0.874,0.557,1.070,0.748,0.363,0.625,0.585,��쓌,1.9,�L
2021/07/29,10:40,0.595,0.877,0.558,1.068,0.749,0.362,0.626,0.584,��쓌,2.0,��
2021/07/29,10:50,0.595,0.875,0.559,1.068,0.749,0.363,0.626,0.586,�쓌,2.0,��
2021/07/29,11:00,0.594,0.873,0.559,1.067,0.749,0.362,0.626,0.585,�쓌,2.5,��
2021/07/29,11:10,0.594,0.872,0.559,1.069,0.749,0.362,0.628,0.586,�쓌,2.6,��
2021/07/29,11:20,0.593,0.875,0.558,1.070,0.750,0.362,0.627,0.586,�쓌,3.2,��
2021/07/29,11:30,0.594,0.873,0.559,1.069,0.749,0.362,0.627,0.586,��,2.0,��
2021/07/29,11:40,0.595,0.873,0.560,1.066,0.748,0.362,0.627,0.589,��,2.8,��
2021/07/29,11:50,0.595,0.874,0.559,1.070,0.750,0.363,0.628,0.586,��,2.0,��
2021/07/29,12:00,0.594,0.874,0.557,1.068,0.749,0.363,0.627,0.585,��쓌,3.7,�L
2021/07/29,12:10,0.592,0.868,0.555,1.061,0.739,0.359,0.623,0.586,��,3.6,�L
2021/07/29,12:20,0.590,0.859,0.551,1.048,0.725,0.355,0.622,0.585,-,CALM,�L
2021/07/29,12:30,0.579,0.844,0.547,1.034,0.715,0.356,0.623,0.585,��,2.3,�L
2021/07/29,12:40,0.578,0.844,0.548,1.035,0.720,0.359,0.620,0.585,��쓌,5.8,�L
2021/07/29,12:50,0.583,0.846,0.549,1.037,0.725,0.359,0.621,0.586,��,8.0,�L
2021/07/29,13:00,0.582,0.851,0.551,1.039,0.726,0.359,0.623,0.584,��쓌,8.3,�L
2021/07/29,13:10,0.583,0.851,0.552,1.040,0.724,0.361,0.621,0.586,��쓌,8.5,�L
2021/07/29,13:20,0.584,0.853,0.550,1.043,0.728,0.360,0.622,0.586,��,9.5,��
2021/07/29,13:30,0.584,0.852,0.550,1.042,0.727,0.359,0.623,0.586,��,8.4,��
2021/07/29,13:40,0.583,0.854,0.550,1.045,0.726,0.359,0.622,0.586,��,10.7,��
2021/07/29,13:50,0.584,0.855,0.549,1.046,0.729,0.359,0.623,0.584,��,10.5,��
2021/07/29,14:00,0.583,0.855,0.551,1.048,0.726,0.358,0.622,0.586,��쓌,11.3,��
2021/07/29,14:10,0.586,0.856,0.548,1.048,0.727,0.359,0.624,0.586,��쓌,11.7,��
2021/07/29,14:20,0.585,0.856,0.550,1.049,0.728,0.359,0.625,0.587,��,10.6,��
2021/07/29,14:30,0.587,0.857,0.551,1.048,0.727,0.359,0.622,0.587,��,10.3,��
2021/07/29,14:40,0.585,0.857,0.550,1.050,0.728,0.359,0.623,0.585,��쓌,13.8,��
2021/07/29,14:50,0.586,0.859,0.551,1.047,0.729,0.359,0.625,0.585,��,12.4,��
2021/07/29,15:00,0.587,0.857,0.551,1.049,0.731,0.360,0.624,0.586,��쓌,11.6,��
2021/07/29,15:10,0.587,0.858,0.550,1.050,0.733,0.360,0.625,0.583,��,11.6,��
2021/07/29,15:20,0.586,0.858,0.551,1.050,0.731,0.359,0.625,0.586,��,10.0,��
2021/07/29,15:30,0.587,0.860,0.551,1.053,0.733,0.361,0.624,0.586,��쓌,9.5,��
2021/07/29,15:40,0.589,0.860,0.552,1.051,0.732,0.360,0.626,0.585,��쓌,10.2,��
2021/07/29,15:50,0.587,0.860,0.551,1.051,0.734,0.360,0.627,0.587,��,10.2,��
2021/07/29,16:00,0.587,0.859,0.550,1.053,0.733,0.360,0.624,0.587,��,9.1,��
2021/07/29,16:10,0.587,0.863,0.554,1.054,0.734,0.361,0.625,0.586,��,9.0,��
2021/07/29,16:20,0.588,0.862,0.553,1.053,0.735,0.359,0.624,0.588,��,8.1,��
2021/07/29,16:30,0.588,0.864,0.554,1.054,0.735,0.359,0.624,0.587,��,8.2,��
2021/07/29,16:40,0.589,0.863,0.553,1.053,0.737,0.361,0.625,0.586,��,8.6,��
2021/07/29,16:50,0.590,0.864,0.554,1.057,0.738,0.361,0.626,0.585,��,8.0,��
2021/07/29,17:00,0.589,0.865,0.554,1.057,0.736,0.361,0.626,0.586,��,6.8,��
2021/07/29,17:10,0.589,0.865,0.555,1.057,0.737,0.362,0.627,0.587,��,7.2,��
2021/07/29,17:20,0.590,0.866,0.555,1.057,0.739,0.360,0.627,0.587,��,8.6,��
2021/07/29,17:30,0.588,0.865,0.554,1.055,0.737,0.363,0.627,0.587,��,8.3,��
2021/07/29,17:40,0.590,0.865,0.554,1.058,0.738,0.362,0.625,0.586,��,7.5,��
2021/07/29,17:50,0.589,0.865,0.554,1.058,0.736,0.361,0.627,0.587,��,7.1,��
2021/07/29,18:00,0.589,0.867,0.555,1.060,0.740,0.362,0.624,0.587,��,7.9,��
2021/07/29,18:10,0.589,0.866,0.555,1.059,0.739,0.362,0.626,0.590,��,6.8,��
2021/07/29,18:20,0.588,0.866,0.556,1.060,0.740,0.362,0.627,0.588,��,6.8,��
2021/07/29,18:30,0.590,0.868,0.554,1.059,0.737,0.360,0.627,0.588,��,6.4,��
2021/07/29,18:40,0.589,0.866,0.554,1.060,0.741,0.363,0.627,0.586,��,7.5,��
2021/07/29,18:50,0.589,0.867,0.557,1.059,0.740,0.363,0.629,0.588,��,8.0,��
2021/07/29,19:00,0.591,0.868,0.556,1.060,0.741,0.361,0.629,0.587,��,7.7,��
2021/07/29,19:10,0.589,0.867,0.556,1.059,0.741,0.362,0.628,0.589,��,6.6,��
2021/07/29,19:20,0.590,0.867,0.556,1.060,0.741,0.361,0.626,0.589,��,6.8,��
2021/07/29,19:30,0.589,0.869,0.556,1.063,0.740,0.361,0.626,0.587,��,6.6,��
2021/07/29,19:40,0.589,0.868,0.554,1.060,0.740,0.361,0.627,0.588,��,7.3,��
2021/07/29,19:50,0.589,0.869,0.554,1.060,0.740,0.362,0.629,0.588,��,7.0,��
2021/07/29,20:00,0.589,0.868,0.556,1.062,0.741,0.361,0.628,0.588,��쓌,8.2,��
2021/07/29,20:10,0.590,0.869,0.556,1.061,0.741,0.362,0.627,0.590,��쓌,9.2,��
2021/07/29,20:20,0.589,0.867,0.557,1.061,0.742,0.361,0.625,0.588,��,8.1,�L
2021/07/29,20:30,0.591,0.869,0.555,1.059,0.741,0.363,0.627,0.589,��,8.0,�L
2021/07/29,20:40,0.589,0.870,0.557,1.060,0.741,0.361,0.627,0.587,��,7.7,�L
2021/07/29,20:50,0.589,0.869,0.555,1.061,0.742,0.361,0.627,0.589,��,6.9,�L
2021/07/29,21:00,0.590,0.870,0.555,1.061,0.743,0.361,0.627,0.587,��,7.5,�L
2021/07/29,21:10,0.590,0.869,0.557,1.060,0.743,0.360,0.626,0.587,��,6.9,�L
2021/07/29,21:20,0.590,0.869,0.553,1.062,0.743,0.361,0.626,0.589,��,7.2,�L
2021/07/29,21:30,0.591,0.867,0.556,1.063,0.745,0.361,0.625,0.586,��,7.3,�L
2021/07/29,21:40,0.589,0.868,0.556,1.063,0.742,0.360,0.625,0.588,��,7.4,�L
2021/07/29,21:50,0.591,0.869,0.556,1.061,0.741,0.362,0.627,0.589,��,5.8,�L
2021/07/29,22:00,0.590,0.867,0.556,1.060,0.742,0.361,0.628,0.588,��,6.2,�L
2021/07/29,22:10,0.588,0.866,0.556,1.061,0.741,0.361,0.626,0.588,��,7.3,�L
2021/07/29,22:20,0.588,0.866,0.556,1.061,0.739,0.362,0.625,0.589,��,7.2,�L
2021/07/29,22:30,0.588,0.865,0.557,1.059,0.740,0.360,0.624,0.588,��,5.9,�L
2021/07/29,22:40,0.588,0.865,0.555,1.058,0.740,0.361,0.623,0.587,��,5.6,�L
2021/07/29,22:50,0.589,0.866,0.554,1.061,0.740,0.360,0.626,0.587,��,6.3,�L
2021/07/29,23:00,0.588,0.864,0.555,1.061,0.739,0.360,0.625,0.587,��,6.9,��
2021/07/29,23:10,0.586,0.863,0.556,1.061,0.739,0.359,0.625,0.588,��,6.3,��
2021/07/29,23:20,0.587,0.866,0.555,1.061,0.740,0.360,0.625,0.589,��,5.7,��
2021/07/29,23:30,0.586,0.865,0.553,1.061,0.739,0.361,0.626,0.587,��,6.0,��
2021/07/29,23:40,0.586,0.867,0.554,1.060,0.740,0.360,0.627,0.586,��,5.6,��
2021/07/29,23:50,0.587,0.866,0.554,1.060,0.741,0.359,0.626,0.588,��,6.2,��
